Wind_Speed
30 33 34 34 36 38 40 41 41 41 42 43 43 43 41 40 40 39 38 38 37 36 36 35 34 32 30 28 27 25 24 22 21 20 20 19 17 16 16 15 15 17 16 14 13 14 16 20 24 27 28 29 30 31 31 31 31 30 28 27 28 27 27 26 26 26 27 28 29 29 28 29 29 27 25 24 24 25 26 27 26 24 22 21 22 23 23
30 33 35 34 35 37 38 39 40 41 42 42 43 43 42 41 39 38 38 37 36 35 35 35 35 34 31 31 31 30 28 27 26 25 25 24 24 23 23 23 22 23 20 17 16 16 15 16 19 22 24 26 28 30 30 31 31 30 28 27 28 28 28 28 28 27 27 28 30 29 31 33 33 31 29 27 26 25 26 28 28 26 23 22 22 23 23
33 33 35 35 34 35 36 38 39 40 41 42 42 42 43 42 40 39 38 37 36 37 35 34 34 33 32 31 31 31 30 29 29 28 27 27 27 27 27 27 27 27 26 23 21 20 18 17 18 20 22 25 27 26 25 25 26 27 26 26 26 28 29 29 29 27 26 27 28 28 28 32 34 35 32 29 28 27 26 27 28 28 26 23 22 23 22
37 36 35 35 34 34 34 35 37 39 40 41 41 41 42 43 42 40 39 37 37 37 36 34 34 33 32 31 30 30 30 30 29 28 26 26 27 27 28 28 29 29 28 26 25 24 23 22 20 20 21 23 25 23 22 22 24 24 25 25 25 25 25 26 26 25 24 25 25 24 24 25 30 36 35 31 30 29 27 26 27 28 27 25 23 23 23
37 39 39 36 34 34 33 33 34 36 38 40 41 41 41 42 42 42 40 39 38 37 37 36 35 34 31 30 29 29 29 28 28 27 26 25 25 26 26 27 28 28 27 27 27 27 27 27 25 23 22 22 23 23 21 22 24 24 24 24 24 23 23 24 24 23 21 21 21 20 20 20 23 31 35 34 32 30 28 27 27 28 28 27 25 25 25
34 37 41 39 36 35 35 34 34 34 36 38 40 40 40 40 41 41 41 41 41 40 38 37 35 32 29 27 27 27 28 28 28 27 26 26 25 25 25 25 26 26 26 26 28 28 28 29 28 27 26 25 25 24 23 24 25 25 25 25 24 23 23 23 23 22 20 20 20 19 18 18 19 24 30 33 33 31 29 28 28 28 28 27 26 26 27
30 30 35 40 40 38 37 37 36 35 34 35 37 39 39 39 39 40 41 42 41 40 39 38 37 34 31 29 28 27 28 28 28 27 26 26 25 25 24 25 25 25 24 25 27 28 29 29 29 29 29 28 27 26 26 26 26 26 26 26 25 24 23 22 22 21 20 20 20 19 18 18 18 19 24 29 31 30 29 29 29 29 28 26 25 26 27
27 25 28 34 39 41 40 39 38 36 35 34 35 36 38 39 39 39 39 39 39 39 39 39 39 37 35 33 31 30 29 28 28 28 27 27 27 26 25 24 24 25 25 25 26 27 27 27 28 28 29 29 29 28 28 28 28 28 27 27 27 26 25 24 23 22 21 21 20 19 19 20 20 19 21 25 28 28 28 29 29 28 27 26 25 25 26
24 23 23 25 30 34 36 39 40 38 36 35 35 35 36 38 38 39 39 38 37 36 35 36 37 38 38 36 35 34 32 31 30 29 28 28 28 27 26 26 26 27 28 28 28 29 28 28 28 28 28 29 29 29 30 30 30 29 29 28 28 27 27 26 24 23 23 23 21 18 17 18 19 17 17 20 23 24 25 26 26 27 26 26 25 25 25
21 22 23 24 25 26 28 31 35 37 37 37 36 36 36 38 38 38 39 39 38 37 34 32 32 33 36 37 37 38 37 36 35 34 32 32 31 29 29 29 29 29 30 30 30 31 30 30 29 29 30 30 30 30 31 32 32 32 31 31 31 30 30 30 27 24 24 24 23 19 15 14 14 13 12 14 17 19 21 22 23 23 25 25 25 25 26
19 20 23 25 27 28 28 28 29 31 34 37 38 38 38 39 40 40 40 39 38 37 36 34 31 30 31 33 35 37 38 40 41 40 38 37 36 34 33 33 33 32 31 31 32 32 31 31 31 31 31 31 32 32 32 32 33 33 32 32 33 33 33 33 31 29 28 26 25 24 21 18 16 15 14 15 16 18 19 19 20 20 21 22 22 23 25
19 20 21 24 26 30 32 32 30 29 29 31 36 39 40 41 42 42 42 42 40 39 38 36 35 33 32 33 35 37 38 40 42 42 43 43 42 39 37 36 36 35 34 33 33 33 33 33 33 32 31 32 33 33 33 34 34 34 34 33 33 33 32 33 33 31 30 28 27 28 27 24 20 18 18 18 19 20 20 19 19 17 17 18 20 21 21
17 18 19 21 23 26 30 32 31 31 29 29 32 35 37 41 43 44 45 44 43 42 41 39 38 37 36 37 38 38 40 40 40 40 43 45 44 42 41 40 38 38 37 36 35 35 35 35 36 35 35 34 33 33 34 34 35 35 35 36 36 34 32 31 31 31 31 30 29 30 30 28 24 21 21 21 21 21 21 21 20 18 18 20 21 21 20
13 14 15 17 18 21 26 28 29 30 32 33 33 31 31 33 37 41 44 45 46 45 44 43 42 40 40 41 41 41 41 41 41 41 43 44 42 42 43 43 41 40 40 39 39 38 38 37 37 37 38 38 37 35 34 35 36 36 36 37 38 37 35 33 31 31 32 32 32 32 32 31 28 26 25 25 24 23 22 23 23 23 24 25 25 24 23
11 12 13 14 15 17 20 23 24 26 29 33 34 33 32 32 32 34 37 40 42 44 44 44 43 41 42 43 44 44 42 42 42 42 42 41 40 41 43 44 44 43 42 41 41 41 41 40 39 39 39 40 40 39 38 36 36 37 37 37 37 37 38 38 36 35 34 34 34 34 34 33 32 29 28 29 29 27 25 25 25 26 27 28 27 27 26
8 9 10 12 13 15 17 18 20 22 24 27 30 32 33 34 34 34 35 36 38 40 41 42 42 41 42 43 44 44 43 43 45 43 40 39 39 39 42 44 45 45 45 43 43 42 42 42 42 41 41 41 41 41 40 39 38 37 37 37 37 37 38 38 39 38 37 36 36 35 35 36 35 33 31 31 32 32 30 29 28 28 28 29 29 29 28
5 6 7 8 10 12 14 16 18 19 21 23 26 27 29 30 32 33 35 37 39 41 41 41 41 41 42 43 44 44 43 43 45 45 42 40 39 38 38 40 42 43 44 44 44 44 44 44 43 43 43 43 43 43 42 41 40 38 37 37 37 38 38 39 39 39 39 39 39 37 37 38 37 36 35 34 34 34 34 33 32 31 30 30 31 31 30
5 5 6 8 9 10 12 14 15 17 19 20 23 24 26 27 28 30 31 34 38 42 44 44 43 42 42 42 43 44 43 42 43 43 42 43 43 42 41 41 42 44 45 45 46 46 46 46 46 46 46 46 46 45 44 43 41 40 39 39 38 38 39 39 40 40 40 40 41 40 39 39 39 38 38 37 37 37 37 36 35 34 34 34 33 33 33
6 6 7 8 10 11 13 14 15 17 18 19 21 22 24 25 26 27 28 30 33 37 42 45 45 45 44 43 44 44 44 44 44 44 43 44 46 46 45 45 46 48 48 49 50 50 50 50 49 49 49 49 50 50 49 48 46 45 43 42 42 41 41 41 41 42 42 42 42 41 41 41 41 40 40 40 39 39 39 39 38 38 37 37 37 37 36
9 9 9 10 11 13 14 16 17 18 20 21 22 23 24 25 26 26 27 29 30 33 36 40 43 45 45 45 45 45 46 46 47 46 45 45 46 46 45 45 46 47 47 48 49 51 52 52 52 51 51 51 52 52 53 53 52 51 49 47 45 45 45 45 44 44 43 43 43 43 43 42 42 42 42 42 42 41 41 41 41 41 40 40 39 39 39
12 13 13 14 15 16 16 17 18 20 21 22 24 25 25 26 28 28 29 29 30 31 33 36 39 42 44 45 46 47 48 48 49 48 47 46 46 46 46 46 46 46 47 47 47 47 49 50 51 52 52 52 53 53 54 54 54 53 53 52 50 48 48 48 48 48 47 46 46 45 45 45 44 44 44 44 44 43 43 43 43 43 42 42 42 42 42
15 16 16 16 18 18 19 19 20 21 22 23 24 26 27 28 29 30 31 32 32 32 33 34 36 39 42 44 46 47 48 49 50 50 50 49 48 47 47 48 48 49 49 49 48 48 48 49 49 50 50 50 50 50 52 54 54 53 53 53 52 51 50 50 50 50 50 50 49 48 48 47 47 47 47 46 46 46 46 46 45 45 45 44 44 44 44
16 18 18 19 20 21 21 22 22 23 23 24 25 26 27 29 30 31 33 34 35 35 35 35 36 37 39 42 45 47 48 50 50 51 51 51 50 49 49 49 50 50 49 50 50 49 49 50 51 51 51 51 50 49 50 52 54 54 54 54 53 53 52 52 52 53 52 52 52 51 50 50 49 49 49 49 49 49 48 48 48 48 48 47 47 47 47
19 20 21 21 22 23 24 24 25 25 26 26 27 27 28 28 30 32 33 35 36 37 38 38 38 39 40 41 43 45 48 49 50 51 52 51 51 51 51 51 52 50 49 50 50 49 49 50 50 51 52 53 54 53 53 53 54 55 55 54 55 55 54 54 54 54 54 54 54 53 53 53 53 53 53 53 53 52 52 52 52 52 51 51 51 51 51
24 24 24 24 25 25 26 26 27 27 28 29 29 29 30 30 31 32 33 35 36 37 39 40 40 41 41 42 43 45 47 49 50 52 52 52 52 51 51 52 53 53 51 51 51 51 51 51 51 50 50 51 53 55 55 55 56 57 57 56 56 56 56 57 57 57 57 57 57 57 57 57 57 57 57 57 57 56 56 56 56 55 55 55 54 54 54
26 26 26 27 27 27 28 28 28 29 30 31 31 32 32 32 32 33 34 35 36 37 38 40 41 42 43 44 45 46 47 48 50 51 52 53 53 52 52 53 53 53 53 53 54 54 54 53 53 53 52 51 53 55 58 58 57 58 58 58 58 58 58 58 58 59 59 59 59 59 59 59 59 59 59 59 59 59 59 58 58 58 57 57 57 57 56
26 27 28 29 29 29 29 30 30 31 31 32 33 34 34 34 34 35 35 35 36 37 37 39 40 42 43 45 46 47 48 49 50 50 51 53 54 54 55 54 54 53 53 54 54 56 56 56 55 55 54 53 53 54 57 60 61 60 58 57 57 58 58 58 58 59 59 59 59 60 60 60 60 60 60 60 60 60 59 59 59 59 59 59 58 58 58
28 29 31 31 31 31 31 31 31 32 33 33 34 35 36 36 36 36 36 36 36 37 37 38 39 40 42 44 46 47 49 50 51 51 52 53 54 55 56 56 55 55 55 55 54 55 56 57 57 57 56 56 54 51 50 53 57 61 62 61 60 59 59 59 59 59 59 59 59 59 59 60 60 60 60 60 60 60 60 60 60 60 60 60 60 59 59
29 30 31 31 31 32 32 33 33 34 34 35 36 36 37 38 38 38 37 37 37 37 37 38 38 39 41 42 44 46 47 49 50 52 53 54 55 56 56 56 56 56 56 56 56 56 57 59 60 60 60 60 58 54 49 47 49 53 57 60 62 62 61 60 59 59 59 58 58 59 59 59 60 61 61 61 61 61 61 61 61 61 61 61 61 61 61
30 30 30 31 31 32 33 34 34 35 35 36 37 37 38 39 39 39 39 38 38 38 38 38 38 39 40 41 43 44 46 47 48 50 52 54 55 56 56 56 57 56 56 56 57 58 58 59 60 61 63 64 63 62 59 56 54 53 53 55 58 61 62 62 62 61 61 61 61 61 61 61 61 62 62 62 62 62 62 62 62 62 62 62 62 62 62
29 30 30 31 32 33 34 35 35 36 36 37 37 38 39 39 40 40 40 40 40 40 40 40 40 40 40 41 42 43 44 45 47 48 49 51 53 55 56 57 57 56 56 57 57 57 58 59 59 61 63 64 64 64 63 62 59 57 56 56 57 59 60 62 63 63 64 64 63 63 63 63 63 63 62 62 62 62 62 62 62 62 62 62 62 62 62
29 30 31 32 33 34 35 35 36 37 37 38 38 39 39 40 40 41 42 42 41 41 42 42 42 42 42 42 42 42 43 44 45 46 47 49 50 51 52 54 55 56 57 58 58 57 57 58 59 60 61 62 62 61 60 59 58 56 56 57 58 59 60 60 60 61 62 63 64 64 64 64 64 64 63 63 63 63 63 63 63 63 63 63 63 63 63
31 32 33 34 34 35 36 37 37 38 39 40 40 40 40 41 41 42 43 44 44 44 44 44 44 44 44 44 44 44 44 44 44 45 46 47 47 48 49 50 51 53 54 55 56 57 57 58 58 59 59 60 60 59 58 57 57 56 57 57 58 59 59 59 59 58 59 59 60 61 62 63 64 65 65 65 65 65 64 64 64 64 64 64 64 64 64
32 33 34 35 35 36 37 38 39 40 41 41 41 42 42 42 43 43 44 45 45 46 46 46 46 46 46 46 46 46 46 46 46 46 46 46 47 47 48 48 50 51 52 51 51 52 54 55 56 57 59 60 61 60 59 57 57 58 58 59 60 60 60 59 59 59 58 58 58 58 58 59 60 61 62 63 64 64 65 65 66 66 66 66 66 67 67
33 34 35 36 37 38 39 40 40 41 42 42 42 43 43 43 44 44 45 46 46 47 48 48 48 49 49 49 49 48 48 48 48 48 48 48 48 48 48 48 49 50 51 52 51 52 52 52 52 53 55 58 59 60 59 58 57 58 59 60 61 61 61 61 60 60 60 60 59 59 59 59 59 59 59 60 61 61 62 62 63 63 64 64 65 66 66
34 36 37 39 39 40 40 41 41 42 42 42 43 43 43 44 45 45 46 47 48 48 49 50 50 51 51 51 51 50 50 49 49 49 49 49 49 48 48 48 48 48 49 50 51 52 53 53 52 52 52 54 56 58 58 58 57 57 58 59 60 60 61 61 61 61 61 61 60 60 60 60 60 60 60 60 61 61 61 61 61 62 62 62 62 63 63
37 38 39 40 41 41 41 41 41 41 42 42 43 43 44 45 45 46 47 48 49 49 50 51 51 51 51 51 51 51 51 50 50 50 50 50 49 49 49 48 48 48 47 48 49 50 51 51 51 52 52 53 54 56 56 56 56 57 57 58 58 59 60 60 60 60 60 60 59 60 59 59 59 60 60 60 60 60 60 61 61 61 61 61 61 61 62
39 40 41 41 41 42 42 42 42 42 42 43 43 43 44 45 45 46 47 48 49 50 50 51 51 52 52 52 52 52 52 52 51 51 51 51 50 50 49 49 48 48 47 47 48 49 49 49 48 50 51 52 53 55 55 55 54 55 55 55 56 57 57 58 58 58 59 59 58 58 58 58 58 58 58 58 58 58 58 58 58 58 58 58 58 58 58
40 41 41 41 41 41 42 42 42 42 43 43 43 44 44 45 46 46 47 47 48 49 50 50 51 51 51 51 51 51 52 52 52 52 52 52 51 50 50 49 49 48 48 47 46 47 49 49 49 49 50 50 50 52 53 53 53 53 52 53 53 53 54 55 56 56 57 57 57 58 58 58 58 58 58 58 57 57 57 56 56 56 56 56 56 56 56
40 40 39 39 39 39 39 40 40 41 41 42 42 43 43 44 44 44 45 45 46 47 47 47 48 48 48 49 49 50 50 51 51 51 51 51 51 51 50 50 49 49 49 48 47 46 47 48 48 49 49 50 49 49 49 50 52 52 52 52 52 52 52 53 54 55 55 55 56 56 56 57 57 57 57 58 58 57 57 57 57 57 57 57 57 57 58
38 38 37 37 37 37 38 38 38 39 40 40 40 40 40 40 41 41 41 42 42 43 44 44 45 45 45 46 46 47 48 49 50 49 49 49 49 49 49 49 49 49 49 49 48 47 46 46 46 47 47 48 48 48 47 47 49 50 51 51 52 53 53 52 53 53 53 53 53 54 54 53 53 53 54 54 55 55 56 56 56 56 57 57 57 58 58
36 36 36 36 37 37 37 37 37 37 37 37 36 36 36 36 36 37 37 38 39 40 41 42 43 43 44 44 45 46 47 47 48 49 49 48 48 49 49 49 49 49 49 49 48 48 47 46 46 46 46 46 47 48 49 48 47 48 48 48 49 51 52 52 53 53 53 52 52 51 51 50 50 50 50 50 51 51 52 53 53 54 54 55 55 56 57
35 35 36 36 37 37 36 36 35 34 34 34 34 34 34 34 34 35 36 36 37 37 38 39 40 41 41 42 43 44 45 46 47 48 49 48 48 48 48 49 49 49 48 48 48 48 48 47 46 45 45 45 46 47 49 49 49 48 48 48 48 49 49 50 51 52 53 54 53 53 52 51 51 50 50 50 51 51 51 51 51 52 52 53 54 54 55
34 35 35 36 36 36 35 34 34 33 33 33 33 33 34 34 34 33 32 32 32 32 32 32 34 35 37 38 39 40 41 43 44 45 46 47 48 48 48 48 48 48 48 48 48 47 47 47 46 46 45 45 45 46 47 48 48 47 47 48 48 48 48 48 49 50 51 52 53 54 54 54 53 53 53 52 52 51 51 51 51 51 52 52 52 52 53
34 34 35 35 36 35 35 34 34 34 34 34 33 33 32 30 28 27 26 26 26 26 26 26 28 30 33 36 37 38 39 40 41 42 42 43 44 45 46 47 47 47 47 47 47 47 46 46 46 46 46 45 45 45 46 46 47 47 47 47 47 47 47 48 48 49 49 50 50 51 51 52 52 52 52 52 51 51 51 51 51 51 51 51 51 51 52
33 34 35 35 35 35 35 34 34 33 33 32 30 28 25 24 23 23 23 23 22 22 21 22 24 26 28 31 34 36 38 38 39 39 40 40 41 41 42 42 43 44 45 46 46 46 46 46 45 45 45 45 45 45 45 45 45 45 46 46 46 47 46 46 46 47 48 48 49 49 49 50 50 50 50 50 50 50 50 50 50 50 50 51 51 52 52
33 34 34 35 35 34 33 33 32 31 29 27 24 21 20 20 21 21 21 20 20 20 21 22 24 25 24 24 25 28 32 33 34 35 36 37 38 39 39 39 38 38 40 42 42 42 43 44 44 44 44 44 44 43 42 41 41 41 42 43 43 44 44 44 43 44 44 45 46 47 48 48 48 49 49 49 49 49 49 49 50 50 50 51 51 51 52
32 33 33 34 34 33 32 31 29 27 24 21 19 18 19 20 20 19 18 18 19 20 21 22 23 23 22 19 18 20 24 28 29 30 31 32 34 35 36 36 36 35 35 36 36 37 39 40 41 42 42 42 41 40 39 38 37 38 38 38 38 38 38 37 37 37 37 37 39 40 41 43 44 45 46 47 47 48 48 48 48 49 49 49 50 50 51
31 32 33 33 33 31 30 29 26 24 21 19 18 17 18 18 18 17 16 16 18 19 20 19 19 19 17 15 15 15 18 21 23 24 25 26 28 29 29 30 30 30 30 30 31 32 34 36 37 39 39 39 38 38 37 36 35 35 34 33 33 32 32 31 31 31 31 32 33 35 36 38 40 41 42 43 44 45 46 46 46 47 47 48 48 49 50
31 31 32 33 32 30 28 27 25 22 20 19 18 17 17 17 17 17 16 15 16 17 18 17 16 15 13 11 12 12 12 15 18 19 20 20 21 23 25 26 25 25 25 25 26 28 30 31 33 35 36 36 36 35 34 33 33 33 33 33 32 31 30 30 30 31 31 32 33 35 36 38 39 40 41 42 43 44 45 45 46 47 48 49 49 50 51
30 31 31 32 32 30 27 26 24 23 21 20 19 18 17 17 17 17 17 16 16 16 15 14 14 13 11 10 9 8 8 12 15 16 17 18 19 21 23 25 25 25 24 23 22 23 25 28 30 32 33 34 33 32 31 31 32 33 33 33 33 33 32 32 32 33 33 34 36 37 38 39 40 41 42 43 44 45 46 47 48 49 49 50 51 51 52
30 31 31 31 31 29 27 25 24 22 21 20 19 18 17 17 17 17 17 16 16 15 15 14 12 10 8 8 7 6 7 11 14 14 15 17 18 19 21 23 25 25 25 24 23 23 24 26 28 31 32 33 33 31 29 30 31 33 34 34 35 35 35 34 34 35 36 37 38 39 40 41 42 43 44 44 45 46 47 48 48 49 49 50 50 50 51
Wind_Direction
200 200 202 205 207 209 211 213 215 217 218 220 222 224 225 228 230 231 233 234 235 235 234 229 229 234 237 237 237 236 235 236 239 244 244 243 244 248 255 262 253 246 248 246 240 235 227 224 225 224 223 224 226 228 230 230 231 235 237 236 238 238 239 241 243 245 247 248 245 241 242 244 242 237 236 238 238 235 232 231 232 234 236 236 236 236 234
199 200 202 204 206 209 211 213 216 218 220 222 223 224 225 227 230 231 232 234 235 236 236 234 232 234 238 240 240 242 245 247 250 252 253 253 253 254 257 261 260 260 264 265 258 251 241 234 235 234 231 229 229 229 231 232 233 237 240 240 240 240 242 243 245 248 252 254 252 248 245 244 242 237 234 234 235 235 234 233 233 232 234 235 236 238 237
196 199 202 204 206 209 211 214 217 219 221 223 225 226 227 228 229 231 232 233 235 237 238 238 237 238 240 242 242 243 247 252 256 257 257 256 256 257 258 259 261 264 266 264 260 258 253 245 240 239 236 235 234 234 235 236 235 236 239 241 240 240 241 243 245 249 254 256 259 260 255 250 243 237 234 234 234 235 234 234 235 233 233 234 235 238 239
195 197 202 206 207 209 211 214 218 220 222 224 226 227 229 230 230 231 232 233 235 238 240 240 240 241 242 244 246 248 251 254 257 258 257 256 256 256 258 258 259 261 261 259 255 252 251 248 244 242 241 240 240 241 242 241 240 240 241 241 239 239 241 243 245 249 252 254 258 261 262 257 246 238 236 235 234 234 233 233 235 234 233 233 235 237 239
200 198 200 205 209 211 214 215 218 222 224 225 227 229 230 231 232 232 233 233 234 236 239 241 242 242 244 246 248 250 252 253 254 254 255 255 254 254 255 255 256 255 255 254 252 248 247 246 244 242 241 241 243 246 246 244 243 243 244 242 238 237 239 243 246 250 251 253 258 259 261 261 251 242 238 235 232 232 232 231 233 234 234 233 233 236 238
205 201 201 203 206 211 215 217 219 222 225 227 229 230 232 233 234 234 234 235 235 236 237 240 241 241 241 243 245 247 248 248 249 250 252 253 253 252 252 252 252 252 250 250 250 248 245 243 241 239 239 238 240 242 244 244 244 243 244 244 241 238 238 240 243 248 250 253 257 259 260 262 256 246 238 233 230 230 230 231 234 236 236 234 232 233 237
211 206 204 204 204 208 212 215 218 221 224 227 230 232 234 236 236 237 237 237 238 237 237 238 240 239 238 238 239 242 244 245 246 247 249 251 252 251 251 251 252 251 249 247 247 248 246 243 240 237 236 235 236 237 239 241 242 242 243 244 242 240 241 242 242 245 247 248 249 252 257 260 257 246 234 228 228 230 230 231 234 236 236 236 234 234 237
226 218 212 210 209 210 213 214 216 219 221 225 228 231 234 236 238 239 240 240 241 240 239 239 240 240 239 238 238 240 242 244 245 246 248 250 251 250 250 250 249 248 246 243 243 245 245 244 242 238 235 234 233 234 236 238 239 240 241 243 244 244 245 246 245 242 240 242 248 252 253 251 247 240 230 226 228 231 231 231 234 236 236 238 239 238 239
242 237 231 225 217 215 217 217 216 216 217 221 225 228 231 234 236 238 240 241 241 241 241 241 242 243 242 240 239 240 241 242 243 246 247 249 250 249 249 248 246 244 243 242 241 242 243 242 242 241 239 235 233 233 235 237 239 240 240 242 245 246 244 244 244 240 237 240 246 252 249 242 236 230 224 225 228 229 230 231 232 233 234 236 239 241 242
247 246 246 242 234 228 226 224 222 220 220 222 224 227 230 232 234 237 239 241 241 241 240 239 239 242 244 243 242 241 241 241 243 245 247 248 248 247 246 246 245 243 242 242 242 242 242 242 241 241 241 240 238 236 236 238 240 241 242 242 244 245 244 242 240 237 237 238 240 242 242 240 237 231 223 224 227 226 227 229 229 229 232 236 239 242 243
249 249 249 247 243 241 237 233 230 229 230 230 229 229 230 231 232 234 236 239 240 241 241 239 237 238 240 241 241 241 242 244 244 245 246 246 245 243 242 243 244 244 243 242 241 241 241 242 241 240 240 242 242 240 240 240 241 242 243 244 245 244 244 243 242 241 241 241 238 236 238 242 246 245 237 232 229 226 226 226 225 226 230 234 237 240 243
248 250 250 249 246 244 243 241 238 236 236 236 234 232 232 232 232 233 234 236 237 239 240 241 240 237 236 237 239 240 242 243 242 243 244 243 240 238 238 239 241 242 242 241 240 240 239 239 240 240 239 240 241 242 242 242 242 241 241 242 244 244 243 245 246 244 244 243 237 233 235 239 242 243 241 237 233 231 232 231 229 230 236 241 241 241 243
242 246 249 251 250 247 247 250 250 246 245 244 242 238 235 234 233 233 234 235 237 238 239 241 240 239 238 239 239 237 237 236 234 235 238 239 236 233 234 236 237 238 239 240 241 241 239 238 238 238 239 239 240 241 242 243 243 243 241 240 242 244 245 246 245 241 240 241 238 233 231 233 236 239 240 240 237 235 235 236 236 234 236 243 247 247 247
232 239 245 249 252 250 250 254 256 254 252 252 253 251 247 243 240 236 234 234 237 239 241 242 242 241 240 241 241 239 238 237 235 234 237 238 236 233 232 234 236 238 239 241 242 243 243 242 240 239 238 239 239 239 240 242 242 243 243 242 241 242 243 244 243 240 237 238 239 237 233 233 236 240 241 240 238 237 236 237 238 236 234 238 243 246 247
218 225 233 239 245 248 250 253 255 255 253 253 256 257 257 255 251 243 238 235 236 238 240 241 243 242 241 241 241 241 240 238 238 239 240 240 238 234 232 233 236 239 241 242 244 245 245 245 243 241 240 239 239 239 239 241 242 242 243 243 243 243 243 244 246 246 242 239 240 240 238 236 238 241 241 239 239 239 239 240 241 241 240 241 244 246 247
213 219 224 230 234 238 243 246 248 249 250 252 254 256 256 256 255 251 246 240 238 239 240 242 243 243 241 240 240 240 239 238 239 240 241 239 237 235 234 235 237 239 241 243 244 245 245 245 245 244 242 240 239 238 239 240 241 243 244 245 245 245 245 246 248 248 247 244 242 242 241 240 241 242 242 240 239 240 242 244 246 246 246 246 247 248 249
221 230 235 239 240 241 243 244 245 245 246 246 248 250 250 251 251 251 249 246 243 242 242 243 244 243 242 241 240 240 240 241 242 243 241 240 239 236 234 235 237 239 242 243 244 243 243 244 244 244 243 241 239 238 238 239 241 243 244 246 247 247 247 247 247 247 247 247 246 245 244 243 243 244 244 243 243 243 245 248 250 251 251 251 251 251 251
237 247 254 258 260 260 260 259 257 255 253 250 248 247 246 246 245 245 245 244 243 243 242 242 242 241 241 242 242 241 241 242 244 244 242 241 243 242 240 238 239 242 245 246 246 244 243 243 243 243 244 244 243 241 240 241 242 244 245 247 248 249 248 248 247 247 247 247 247 247 247 246 245 245 246 246 247 248 249 251 252 253 254 254 255 255 255
253 257 262 266 270 272 273 273 271 269 267 264 260 257 254 251 248 245 243 242 241 241 242 241 241 240 240 241 242 243 243 242 243 244 243 243 244 246 246 245 245 245 246 247 247 246 245 244 244 245 245 246 247 247 247 247 247 248 248 248 247 248 249 249 248 247 247 247 247 247 247 246 246 246 247 248 249 250 251 252 253 253 254 255 255 256 257
259 265 271 276 278 278 277 276 275 274 273 272 269 267 265 262 258 255 251 248 245 243 242 241 241 241 240 241 241 242 242 243 244 245 245 246 247 247 248 248 247 246 244 244 245 245 246 246 246 247 247 247 248 249 251 252 252 252 252 250 248 247 247 248 248 248 247 246 246 246 246 246 246 246 247 248 249 250 251 252 253 254 254 255 256 257 258
263 270 276 280 281 280 278 277 276 275 275 274 272 270 269 267 265 262 259 256 253 249 246 244 243 242 242 242 242 242 242 243 244 245 246 247 248 248 248 248 248 248 247 246 246 246 246 247 247 247 248 249 249 249 250 252 254 254 253 252 250 248 246 246 247 247 248 247 247 246 246 246 246 247 247 248 249 250 251 252 253 254 255 256 257 258 258
268 272 276 278 279 280 280 279 278 278 277 276 275 273 271 269 267 265 263 260 258 255 252 249 247 245 244 243 243 243 244 244 244 244 245 246 247 248 248 249 249 249 249 249 249 249 248 248 247 247 248 249 250 249 249 250 251 251 250 250 249 248 247 246 245 246 247 248 248 248 248 247 247 248 248 249 249 250 251 252 253 254 254 255 256 258 259
270 274 275 277 279 280 280 279 279 279 279 278 276 275 273 271 269 267 264 262 260 258 255 253 250 248 247 245 244 244 244 244 244 244 245 245 246 246 246 247 248 249 249 249 249 249 249 249 249 248 249 251 252 253 253 251 250 248 246 246 246 246 246 246 245 245 246 247 248 249 250 250 250 251 251 251 252 252 253 254 255 255 256 256 257 257 258
269 274 277 280 281 281 280 279 279 279 279 277 276 274 273 272 271 268 266 264 261 259 257 255 253 250 249 247 246 245 245 245 245 245 245 245 246 246 247 247 248 247 246 247 249 251 251 250 250 250 251 252 253 255 254 253 251 248 246 245 244 243 244 245 245 246 246 247 247 248 250 251 252 253 254 254 255 255 255 256 256 257 258 258 259 259 260
271 274 277 280 283 282 281 280 280 279 278 277 275 274 273 273 271 270 267 265 263 260 258 256 254 252 250 249 247 247 247 247 247 246 246 246 247 247 248 249 249 248 246 244 246 250 252 252 251 251 251 251 252 252 252 251 250 249 247 246 245 244 244 244 245 246 247 248 248 250 251 252 253 254 254 255 255 255 256 256 257 257 258 259 259 260 260
272 274 278 281 283 283 282 281 280 279 278 276 275 274 274 273 272 271 268 265 263 261 259 257 256 254 252 250 249 248 248 248 248 249 249 249 249 249 249 249 249 250 249 246 245 246 249 251 251 250 250 249 248 248 247 246 246 246 247 247 247 246 246 245 245 245 246 247 249 250 251 252 253 253 254 254 254 255 255 255 256 256 257 257 258 258 259
275 278 281 283 283 282 281 281 281 280 278 277 275 274 274 274 273 272 269 266 263 260 259 257 256 255 253 252 250 249 248 248 248 249 249 250 251 251 250 249 249 249 250 249 248 247 248 249 251 250 249 247 245 245 244 243 242 243 244 245 246 248 248 248 248 248 248 248 249 251 252 252 253 253 254 254 254 255 255 255 256 256 256 256 256 257 257
280 282 283 283 283 282 282 282 281 280 279 277 275 274 273 273 272 272 270 267 264 260 258 257 256 256 255 254 252 251 250 248 248 248 249 249 251 251 252 252 251 250 250 250 249 248 247 247 248 249 248 246 244 244 244 244 243 243 243 244 246 247 249 250 250 250 250 250 250 251 252 252 253 254 254 255 255 255 256 256 256 256 256 256 256 256 257
285 285 284 283 283 282 282 282 281 280 278 277 275 274 273 272 271 270 269 267 265 262 260 258 257 256 256 255 255 254 253 252 250 249 248 249 250 251 252 253 253 252 251 251 250 249 248 247 246 247 247 246 245 244 244 247 249 249 248 247 247 248 249 250 251 251 251 251 252 252 252 253 253 254 254 255 256 256 257 257 257 258 258 258 258 258 258
286 285 284 283 282 282 282 282 281 280 278 277 276 275 274 273 272 270 269 267 265 263 261 259 258 257 257 256 256 256 256 255 254 252 251 250 250 250 251 252 252 253 253 252 251 250 249 248 247 247 248 248 248 247 248 251 254 255 254 252 251 249 249 249 250 250 251 252 253 254 255 255 255 255 255 255 256 257 257 258 259 259 259 259 260 260 259
284 283 283 283 283 283 282 281 280 279 278 277 276 275 274 272 271 270 269 267 265 263 261 260 259 258 257 257 257 257 257 257 256 255 254 253 252 251 251 251 251 251 251 251 251 250 250 250 249 249 249 250 251 252 253 254 256 255 254 254 252 250 249 249 249 249 250 251 252 254 254 255 256 256 256 257 257 257 258 259 260 260 261 261 262 262 262
285 285 285 284 284 283 282 281 280 279 278 276 275 274 272 271 270 268 267 266 265 263 261 260 259 258 258 257 257 257 257 257 257 256 256 255 254 253 252 252 251 250 250 250 250 250 250 250 250 250 250 252 253 253 253 254 253 253 252 251 251 250 250 250 250 250 251 251 252 253 253 254 255 256 257 257 258 259 259 260 261 261 262 262 263 264 264
286 286 285 285 284 283 282 281 280 279 278 276 275 274 272 270 269 267 266 265 264 263 261 260 259 258 257 257 257 257 257 257 257 257 257 256 255 254 253 252 251 251 250 250 250 250 250 249 248 249 249 250 251 252 252 251 250 249 248 248 249 249 250 250 251 251 251 252 252 253 253 254 255 255 256 257 258 259 260 261 261 262 262 263 263 264 264
286 286 286 285 285 284 283 282 281 280 278 277 276 274 273 270 268 266 265 264 263 262 262 261 260 259 258 258 258 258 258 257 257 257 256 256 255 254 252 251 250 250 249 249 249 250 250 250 248 247 247 248 249 250 250 248 247 247 246 247 248 249 250 250 251 251 252 252 253 254 254 255 255 256 256 257 258 258 259 260 261 261 262 262 263 263 264
289 289 289 289 288 287 286 284 283 281 280 279 277 276 274 272 269 267 265 263 262 262 261 261 260 260 260 260 260 260 259 258 257 256 256 255 255 253 252 251 250 249 249 248 247 247 248 249 248 247 246 247 248 249 249 248 247 246 246 247 248 248 249 250 250 251 252 253 253 254 255 255 256 257 257 257 258 258 259 259 260 261 261 262 262 263 263
294 294 293 293 291 290 288 286 284 282 280 279 277 275 274 272 270 268 266 264 263 262 261 261 260 260 261 261 261 261 259 258 257 256 255 254 254 253 252 251 250 249 248 248 247 246 247 248 248 248 247 247 247 248 249 248 248 247 246 247 247 248 249 250 250 251 252 252 253 254 255 256 256 257 257 258 258 259 260 260 261 261 261 261 262 262 263
298 297 296 295 293 291 289 287 284 282 280 278 276 275 273 271 270 269 267 266 265 264 263 262 261 261 261 261 260 260 260 259 258 256 255 254 253 252 251 251 250 249 248 247 246 246 246 247 248 248 248 247 248 248 249 249 249 248 247 247 247 248 249 249 250 251 251 252 253 253 254 255 255 256 257 257 258 259 260 260 261 261 261 262 262 262 263
301 300 298 296 295 293 291 289 286 284 282 280 278 277 275 273 271 270 269 268 267 266 265 264 263 262 262 261 260 260 259 258 257 256 255 254 253 251 250 250 250 249 249 247 246 244 244 245 246 246 247 247 248 249 249 249 249 249 248 248 248 249 249 250 251 251 251 252 252 253 253 254 254 255 256 256 257 257 258 259 259 260 261 261 262 263 263
302 300 298 296 294 292 290 288 286 285 283 281 279 277 276 274 273 272 270 269 268 267 266 265 265 264 263 262 261 260 258 257 256 255 254 254 253 252 250 249 248 248 248 248 247 246 245 245 245 245 246 247 248 249 249 249 250 250 249 248 248 249 250 251 252 252 252 253 253 253 253 254 254 255 255 256 256 256 257 257 258 259 260 261 261 262 263
301 299 297 295 293 292 290 289 287 285 284 282 280 278 277 275 274 273 272 271 270 269 268 267 266 264 263 262 261 259 258 256 255 254 253 253 253 252 251 250 249 248 247 247 247 246 246 246 246 246 246 247 248 248 248 248 249 250 250 249 248 248 249 250 251 251 252 252 253 253 254 254 254 255 255 256 256 257 257 258 259 259 260 261 262 262 263
302 301 300 299 298 297 295 293 291 289 287 285 283 282 280 278 277 275 274 273 271 270 269 268 266 265 263 262 260 259 258 256 255 253 252 251 251 251 251 250 249 248 247 247 246 246 246 246 246 247 247 246 246 246 246 246 247 248 249 250 249 249 249 249 249 250 250 251 252 252 253 254 254 255 255 256 256 257 257 258 259 260 261 261 262 263 264
306 306 305 305 303 302 300 298 295 293 290 288 286 284 282 281 279 277 276 274 273 272 270 269 267 265 263 262 260 259 258 256 255 254 252 250 249 249 249 249 249 248 247 247 246 246 246 246 246 246 246 246 245 244 243 244 246 247 248 250 251 251 251 251 249 249 250 251 251 252 252 253 254 254 255 256 257 257 258 259 260 260 261 262 263 264 265
310 310 309 308 306 304 302 300 298 295 293 291 289 287 286 285 283 281 279 278 276 275 273 271 269 267 265 262 259 258 256 255 254 253 252 251 250 249 248 248 248 248 247 247 246 246 245 245 245 245 245 245 245 244 243 244 246 248 249 251 253 254 255 254 253 252 252 252 253 253 253 254 255 256 257 258 258 259 260 260 261 261 262 263 264 265 266
312 312 311 309 308 306 304 302 300 298 296 294 293 292 291 290 288 286 283 282 280 278 277 275 274 271 269 265 261 258 255 253 252 252 251 250 249 249 248 247 247 247 247 247 246 246 245 245 245 245 245 245 245 245 244 245 246 247 248 250 252 254 255 256 256 256 255 254 254 254 254 255 255 256 257 258 258 259 259 259 260 261 262 263 264 265 266
314 314 314 313 312 310 309 307 304 302 301 299 298 297 295 293 291 288 286 284 283 282 281 281 280 278 274 269 263 259 255 252 251 250 249 249 249 248 248 247 246 246 246 246 245 245 245 245 245 245 245 245 245 245 245 245 246 247 248 250 251 253 254 255 256 255 254 254 253 253 253 253 254 255 255 255 256 256 257 258 259 261 262 262 263 264 265
318 319 319 318 317 315 312 310 307 305 304 302 301 300 297 295 292 289 288 286 286 285 285 287 289 289 285 275 265 257 252 251 249 248 247 247 246 246 246 246 246 246 245 245 245 245 244 244 244 244 244 245 245 246 246 247 248 248 250 251 252 253 254 255 254 253 253 252 252 252 252 252 252 253 253 254 255 255 256 257 259 259 261 262 263 264 266
323 324 323 322 320 318 315 312 310 307 305 303 302 300 298 296 294 293 290 288 288 289 288 288 291 295 296 288 273 259 250 247 246 245 245 245 244 244 243 243 243 244 244 244 244 244 244 244 244 244 244 245 245 247 247 248 249 250 251 251 251 252 253 254 254 253 253 252 252 252 252 252 252 253 253 254 254 255 256 257 258 260 261 263 264 265 267
326 326 326 326 324 321 318 316 313 310 307 305 302 300 299 299 298 297 293 290 291 294 294 293 294 295 295 292 284 268 252 244 241 241 241 241 241 241 241 241 240 242 244 246 245 244 244 243 243 243 244 245 246 247 248 249 250 250 249 249 249 251 252 253 253 253 253 253 253 253 252 252 252 252 252 253 254 255 256 258 259 261 262 264 265 267 268
327 328 329 329 328 325 322 320 318 314 309 306 303 302 302 302 301 300 298 295 295 300 305 306 304 299 294 291 289 278 256 241 235 234 235 236 237 237 237 237 237 239 241 243 243 242 242 242 241 241 241 242 244 245 247 248 249 248 247 248 249 250 249 249 250 250 251 251 251 251 251 250 251 251 252 254 255 256 258 259 261 262 264 266 267 269 270
328 330 331 332 331 328 326 324 322 317 311 308 305 304 302 301 299 300 302 300 298 303 311 314 310 302 295 295 297 284 252 229 223 224 228 232 233 230 227 226 230 232 235 238 240 239 239 238 238 238 238 239 240 242 244 245 246 245 246 247 250 250 250 249 250 250 251 251 252 252 252 253 253 254 255 256 258 259 260 262 263 265 266 268 269 271 272
330 331 333 334 334 332 329 328 326 321 315 311 307 304 302 299 297 297 300 301 300 303 309 314 312 304 295 294 298 286 243 221 218 219 219 222 227 226 222 221 225 229 232 235 238 240 239 237 236 236 236 235 236 238 241 244 246 247 248 250 251 253 254 254 253 253 253 254 254 255 255 256 257 258 259 259 261 262 263 264 265 267 268 269 270 271 271
332 333 334 335 336 335 332 329 327 325 320 315 309 304 301 299 297 296 296 298 298 300 304 310 316 316 305 293 289 277 240 225 223 221 218 218 222 224 222 222 225 230 233 235 237 241 243 242 239 237 234 232 233 237 243 247 248 249 251 252 253 254 256 256 256 256 256 256 256 257 258 258 259 260 260 261 262 263 264 265 266 267 268 269 269 270 271
Height
5808 5811 5814 5817 5820 5823 5826 5829 5831 5834 5837 5840 5842 5845 5848 5850 5853 5856 5859 5862 5865 5868 5870 5873 5876 5878 5880 5881 5882 5884 5886 5887 5888 5890 5892 5893 5894 5895 5896 5897 5897 5896 5898 5901 5902 5903 5905 5907 5908 5909 5911 5912 5914 5914 5916 5918 5919 5920 5922 5925 5926 5927 5928 5929 5929 5930 5932 5932 5932 5932 5933 5934 5936 5938 5939 5940 5942 5943 5944 5945 5946 5948 5950 5951 5952 5952 5952
5807 5810 5813 5816 5819 5822 5824 5827 5829 5832 5835 5837 5840 5842 5845 5848 5850 5854 5857 5859 5862 5864 5867 5870 5873 5875 5877 5879 5880 5882 5884 5885 5886 5888 5889 5891 5892 5893 5894 5895 5895 5895 5897 5900 5902 5902 5904 5906 5907 5907 5908 5909 5910 5911 5912 5915 5917 5918 5920 5923 5924 5925 5926 5927 5927 5928 5929 5929 5929 5929 5930 5930 5932 5935 5936 5937 5939 5940 5941 5943 5944 5945 5947 5948 5950 5951 5951
5805 5809 5812 5814 5817 5820 5823 5825 5827 5830 5832 5835 5837 5840 5843 5845 5848 5851 5854 5857 5859 5861 5864 5866 5869 5872 5874 5876 5878 5880 5881 5882 5883 5885 5887 5888 5889 5891 5892 5893 5894 5894 5895 5899 5901 5902 5903 5904 5905 5906 5907 5907 5908 5909 5912 5914 5915 5917 5918 5920 5921 5922 5923 5924 5924 5925 5926 5926 5926 5927 5927 5927 5929 5932 5933 5934 5936 5937 5939 5940 5941 5943 5944 5945 5947 5949 5950
5803 5806 5810 5813 5816 5819 5821 5824 5826 5828 5830 5832 5835 5838 5840 5843 5846 5848 5851 5854 5856 5858 5861 5863 5866 5868 5870 5872 5874 5876 5877 5879 5880 5882 5883 5885 5887 5888 5889 5890 5892 5892 5893 5895 5898 5900 5902 5903 5904 5904 5905 5906 5906 5908 5911 5912 5913 5914 5915 5917 5918 5919 5920 5920 5921 5922 5923 5924 5924 5924 5924 5924 5925 5927 5929 5931 5932 5934 5935 5937 5938 5940 5942 5943 5945 5946 5948
5801 5804 5807 5811 5814 5817 5819 5821 5823 5826 5828 5830 5833 5835 5837 5840 5843 5845 5848 5850 5853 5856 5858 5860 5862 5865 5867 5869 5871 5872 5874 5875 5877 5879 5880 5882 5883 5885 5886 5887 5889 5890 5891 5892 5894 5897 5899 5900 5902 5903 5904 5904 5905 5906 5908 5909 5910 5911 5913 5914 5915 5917 5918 5918 5918 5919 5920 5921 5921 5922 5922 5921 5921 5923 5924 5926 5928 5930 5932 5933 5935 5938 5939 5940 5941 5943 5945
5800 5802 5805 5808 5811 5814 5816 5818 5821 5824 5826 5828 5830 5833 5835 5837 5839 5842 5844 5847 5850 5852 5855 5857 5859 5862 5864 5866 5868 5869 5871 5872 5874 5876 5877 5879 5880 5882 5883 5884 5885 5886 5888 5889 5890 5892 5895 5897 5899 5900 5902 5902 5903 5904 5905 5906 5907 5909 5910 5911 5913 5915 5916 5916 5917 5917 5917 5919 5919 5919 5919 5919 5918 5919 5920 5922 5924 5926 5928 5930 5932 5935 5936 5937 5938 5939 5941
5798 5801 5803 5805 5807 5810 5813 5816 5819 5822 5824 5826 5828 5830 5832 5834 5836 5839 5841 5843 5846 5848 5851 5853 5855 5858 5861 5864 5865 5867 5868 5870 5872 5873 5874 5876 5877 5879 5880 5881 5882 5883 5885 5887 5888 5889 5891 5893 5895 5897 5899 5900 5901 5902 5903 5903 5904 5906 5907 5908 5909 5911 5912 5913 5914 5915 5916 5917 5917 5917 5917 5917 5916 5916 5916 5918 5920 5922 5925 5927 5929 5931 5933 5934 5934 5935 5937
5796 5798 5801 5802 5805 5808 5810 5813 5816 5819 5821 5823 5825 5828 5830 5831 5834 5836 5838 5840 5842 5844 5847 5849 5852 5854 5857 5860 5863 5864 5866 5867 5869 5870 5871 5872 5874 5876 5877 5878 5879 5880 5882 5884 5885 5886 5888 5889 5891 5893 5895 5896 5897 5899 5900 5900 5901 5903 5904 5904 5906 5907 5908 5910 5911 5913 5914 5915 5915 5916 5916 5915 5914 5914 5914 5915 5917 5919 5921 5924 5926 5928 5930 5931 5931 5932 5933
5794 5796 5798 5800 5803 5806 5808 5811 5813 5816 5818 5820 5822 5824 5826 5828 5831 5833 5835 5837 5838 5840 5843 5845 5848 5851 5853 5856 5859 5861 5863 5864 5865 5866 5868 5869 5871 5872 5874 5875 5876 5878 5879 5881 5882 5883 5885 5886 5887 5889 5890 5892 5894 5895 5896 5897 5898 5899 5901 5902 5902 5904 5905 5907 5908 5910 5911 5912 5913 5913 5913 5913 5912 5912 5912 5913 5915 5917 5918 5921 5923 5925 5927 5927 5928 5928 5929
5792 5794 5796 5798 5801 5803 5806 5808 5810 5813 5815 5817 5819 5821 5823 5825 5827 5829 5831 5833 5835 5837 5839 5841 5844 5847 5849 5852 5855 5857 5859 5860 5861 5863 5864 5865 5866 5868 5870 5872 5873 5874 5876 5877 5878 5880 5881 5883 5884 5885 5886 5888 5890 5891 5893 5894 5895 5896 5898 5899 5900 5901 5902 5903 5905 5907 5909 5910 5910 5910 5910 5910 5910 5910 5911 5912 5913 5915 5916 5918 5920 5922 5924 5924 5924 5925 5926
5790 5792 5794 5796 5798 5801 5803 5806 5808 5811 5812 5814 5816 5818 5819 5821 5824 5826 5828 5829 5831 5833 5835 5838 5840 5843 5845 5847 5850 5852 5854 5855 5856 5857 5858 5859 5861 5863 5865 5867 5869 5870 5872 5873 5874 5876 5878 5879 5880 5882 5883 5884 5886 5887 5889 5890 5891 5892 5895 5896 5897 5897 5898 5900 5901 5903 5904 5906 5907 5907 5908 5908 5907 5908 5909 5911 5912 5914 5915 5916 5918 5919 5920 5921 5921 5922 5923
5788 5790 5792 5794 5796 5798 5800 5803 5806 5808 5809 5811 5813 5814 5815 5818 5820 5822 5824 5826 5827 5830 5832 5834 5836 5839 5840 5842 5844 5846 5848 5849 5850 5851 5852 5852 5853 5856 5859 5861 5863 5865 5867 5869 5870 5872 5873 5875 5876 5878 5880 5881 5882 5884 5885 5886 5887 5888 5891 5893 5893 5893 5894 5896 5897 5899 5900 5901 5903 5904 5905 5905 5905 5906 5908 5909 5910 5912 5913 5914 5915 5917 5918 5918 5919 5919 5920
5787 5788 5790 5791 5794 5796 5798 5799 5802 5804 5806 5807 5808 5809 5812 5814 5816 5818 5820 5822 5824 5826 5828 5830 5832 5834 5835 5837 5838 5840 5842 5842 5843 5843 5844 5845 5847 5850 5853 5856 5858 5860 5862 5864 5866 5867 5869 5870 5872 5873 5875 5877 5878 5880 5881 5881 5883 5884 5886 5888 5889 5889 5891 5892 5894 5896 5898 5898 5899 5900 5901 5902 5903 5904 5906 5907 5908 5909 5910 5911 5912 5915 5917 5916 5915 5916 5917
5787 5787 5788 5790 5791 5793 5795 5797 5798 5800 5802 5803 5804 5806 5809 5810 5812 5813 5816 5818 5820 5821 5823 5825 5828 5829 5830 5831 5833 5835 5837 5838 5838 5837 5838 5840 5842 5845 5848 5850 5853 5855 5857 5859 5860 5862 5864 5866 5867 5869 5870 5872 5874 5875 5876 5877 5878 5880 5881 5883 5884 5886 5887 5888 5890 5892 5894 5895 5896 5896 5898 5899 5900 5901 5903 5904 5905 5906 5907 5908 5909 5911 5912 5912 5912 5912 5914
5786 5787 5788 5789 5790 5791 5793 5794 5795 5796 5797 5799 5801 5803 5805 5807 5808 5809 5811 5813 5815 5817 5818 5820 5822 5824 5825 5826 5827 5830 5832 5833 5833 5833 5834 5836 5838 5840 5843 5845 5847 5849 5852 5853 5855 5857 5859 5861 5863 5864 5866 5867 5869 5870 5872 5873 5874 5875 5877 5878 5880 5881 5883 5884 5886 5887 5889 5891 5892 5893 5893 5895 5897 5898 5899 5900 5901 5902 5903 5904 5905 5906 5907 5908 5908 5909 5910
5785 5786 5787 5788 5789 5790 5791 5792 5793 5793 5795 5796 5798 5799 5801 5802 5804 5806 5807 5809 5810 5812 5814 5815 5817 5819 5820 5821 5822 5824 5826 5827 5827 5828 5831 5832 5834 5836 5838 5840 5842 5844 5846 5848 5850 5852 5854 5856 5858 5859 5861 5862 5864 5865 5867 5868 5870 5871 5872 5874 5875 5877 5878 5880 5881 5882 5884 5886 5888 5889 5890 5891 5893 5894 5895 5896 5897 5898 5899 5900 5901 5902 5902 5903 5904 5905 5906
5783 5784 5785 5786 5787 5788 5789 5790 5791 5791 5792 5793 5794 5796 5797 5798 5799 5801 5803 5804 5806 5807 5809 5811 5812 5813 5815 5816 5817 5819 5820 5820 5821 5823 5826 5828 5830 5831 5833 5835 5837 5839 5841 5843 5845 5847 5849 5851 5852 5854 5856 5858 5859 5861 5862 5864 5865 5866 5868 5869 5871 5872 5873 5875 5876 5878 5879 5881 5882 5884 5885 5887 5888 5889 5891 5892 5893 5894 5895 5895 5896 5897 5898 5899 5899 5900 5902
5782 5783 5784 5784 5785 5786 5786 5787 5788 5789 5789 5790 5791 5792 5793 5794 5795 5796 5798 5799 5801 5802 5804 5806 5807 5808 5809 5810 5811 5813 5815 5815 5815 5817 5820 5822 5824 5826 5828 5830 5832 5834 5836 5837 5839 5841 5843 5845 5847 5848 5851 5852 5854 5856 5857 5859 5860 5862 5863 5865 5866 5867 5869 5870 5871 5873 5874 5876 5877 5878 5880 5881 5883 5884 5886 5887 5888 5889 5890 5891 5892 5893 5893 5894 5895 5896 5897
5780 5781 5782 5782 5783 5783 5784 5784 5785 5785 5786 5787 5787 5788 5789 5790 5791 5792 5793 5794 5795 5797 5799 5801 5802 5803 5804 5805 5806 5807 5809 5810 5810 5811 5814 5816 5818 5820 5822 5824 5826 5827 5829 5831 5832 5834 5836 5838 5840 5842 5845 5847 5848 5850 5852 5853 5855 5857 5859 5860 5861 5863 5864 5866 5867 5868 5869 5871 5872 5873 5874 5876 5877 5879 5880 5882 5883 5884 5885 5886 5887 5888 5889 5890 5891 5891 5892
5778 5778 5779 5780 5780 5781 5781 5782 5782 5782 5782 5783 5783 5784 5784 5785 5786 5787 5788 5789 5790 5791 5792 5794 5796 5797 5799 5800 5801 5802 5803 5804 5804 5806 5808 5811 5813 5814 5816 5818 5819 5820 5822 5823 5825 5827 5829 5831 5833 5836 5838 5840 5842 5844 5846 5847 5849 5851 5852 5854 5856 5858 5859 5860 5862 5863 5864 5866 5867 5868 5869 5871 5872 5873 5875 5876 5877 5878 5879 5880 5881 5883 5884 5885 5886 5886 5887
5776 5776 5777 5777 5778 5778 5778 5779 5779 5779 5779 5779 5779 5779 5780 5780 5781 5782 5783 5784 5785 5786 5786 5788 5789 5791 5793 5794 5795 5796 5797 5798 5799 5801 5803 5805 5807 5808 5810 5811 5813 5814 5815 5817 5819 5821 5822 5824 5826 5828 5830 5833 5835 5837 5839 5840 5842 5843 5845 5847 5849 5851 5853 5854 5856 5857 5858 5860 5861 5862 5864 5865 5866 5867 5869 5870 5871 5872 5873 5874 5875 5877 5878 5879 5880 5881 5881
5773 5773 5774 5774 5774 5775 5775 5775 5775 5776 5776 5776 5775 5775 5776 5776 5776 5777 5778 5778 5779 5780 5781 5782 5783 5785 5786 5787 5788 5789 5791 5792 5794 5795 5797 5799 5801 5802 5803 5804 5805 5807 5808 5810 5812 5814 5816 5818 5819 5821 5823 5825 5827 5829 5831 5833 5835 5837 5838 5840 5842 5844 5846 5848 5849 5850 5852 5853 5854 5856 5857 5858 5860 5861 5862 5863 5865 5866 5867 5868 5869 5871 5872 5873 5874 5875 5876
5770 5770 5771 5771 5771 5771 5771 5771 5771 5772 5772 5772 5772 5771 5771 5771 5771 5772 5772 5773 5773 5774 5775 5777 5778 5779 5780 5781 5782 5783 5784 5785 5787 5789 5790 5792 5793 5795 5797 5797 5798 5800 5801 5803 5804 5807 5809 5811 5812 5814 5816 5818 5819 5821 5823 5826 5828 5830 5831 5833 5835 5836 5838 5840 5842 5844 5845 5846 5848 5849 5850 5851 5853 5854 5855 5857 5858 5860 5861 5862 5863 5864 5865 5867 5868 5869 5870
5767 5767 5767 5767 5767 5767 5767 5767 5767 5767 5767 5767 5767 5767 5767 5767 5766 5766 5766 5766 5767 5768 5769 5770 5772 5773 5774 5775 5776 5777 5777 5779 5780 5781 5783 5784 5786 5788 5789 5790 5790 5792 5795 5797 5798 5800 5802 5803 5805 5807 5809 5810 5812 5813 5815 5818 5820 5822 5824 5826 5828 5829 5831 5833 5834 5836 5838 5840 5841 5842 5843 5845 5846 5847 5849 5850 5852 5853 5854 5856 5857 5858 5859 5860 5861 5861 5862
5763 5763 5763 5763 5763 5763 5763 5763 5762 5762 5762 5762 5762 5762 5762 5762 5762 5761 5761 5760 5761 5761 5762 5764 5765 5766 5767 5768 5769 5770 5771 5772 5773 5774 5775 5777 5780 5781 5782 5781 5782 5784 5788 5790 5792 5793 5794 5795 5798 5800 5801 5803 5804 5806 5808 5810 5812 5814 5816 5818 5820 5822 5824 5825 5827 5828 5830 5832 5833 5835 5836 5838 5839 5840 5842 5843 5845 5846 5847 5848 5850 5851 5852 5852 5853 5854 5855
5759 5759 5759 5759 5758 5758 5758 5758 5757 5757 5757 5757 5757 5756 5757 5756 5756 5756 5755 5755 5755 5755 5756 5756 5757 5759 5760 5761 5762 5763 5764 5765 5766 5768 5769 5771 5772 5773 5773 5773 5774 5777 5780 5782 5784 5786 5786 5788 5790 5792 5794 5795 5797 5799 5800 5802 5804 5806 5808 5810 5812 5813 5815 5817 5818 5820 5822 5823 5825 5827 5828 5830 5831 5833 5834 5835 5837 5838 5839 5840 5842 5843 5844 5845 5846 5847 5848
5754 5754 5754 5754 5753 5753 5753 5752 5752 5752 5751 5751 5751 5750 5750 5750 5750 5750 5750 5749 5749 5749 5749 5749 5750 5751 5752 5753 5754 5755 5757 5758 5759 5761 5763 5763 5763 5763 5763 5764 5767 5770 5772 5774 5776 5778 5780 5781 5782 5784 5786 5788 5790 5791 5793 5795 5797 5799 5800 5802 5804 5805 5806 5808 5810 5812 5813 5815 5817 5818 5820 5822 5823 5825 5826 5827 5828 5830 5831 5832 5833 5835 5836 5837 5838 5839 5840
5750 5750 5749 5748 5748 5748 5747 5747 5747 5746 5745 5745 5745 5744 5744 5744 5744 5744 5743 5743 5743 5743 5743 5743 5743 5744 5744 5745 5746 5747 5748 5750 5752 5753 5755 5755 5754 5754 5755 5757 5760 5762 5764 5766 5768 5770 5772 5774 5776 5778 5779 5781 5783 5785 5786 5788 5790 5792 5793 5795 5796 5798 5799 5800 5801 5803 5805 5806 5808 5810 5812 5813 5815 5816 5817 5819 5820 5821 5823 5824 5825 5827 5828 5829 5830 5831 5832
5746 5745 5744 5743 5743 5742 5742 5741 5741 5740 5740 5739 5738 5738 5737 5737 5737 5737 5737 5737 5737 5737 5737 5737 5737 5737 5737 5738 5738 5739 5740 5741 5743 5745 5745 5746 5746 5746 5748 5750 5752 5754 5756 5759 5760 5762 5763 5765 5768 5770 5772 5773 5775 5777 5779 5781 5783 5785 5787 5788 5789 5791 5792 5793 5794 5795 5796 5798 5800 5802 5803 5805 5806 5808 5809 5810 5812 5813 5815 5816 5817 5818 5819 5820 5821 5823 5824
5741 5740 5739 5738 5737 5737 5736 5735 5735 5734 5733 5733 5732 5731 5731 5730 5730 5730 5730 5730 5730 5730 5730 5730 5731 5731 5731 5731 5731 5732 5733 5734 5735 5736 5736 5737 5738 5740 5741 5742 5743 5746 5749 5750 5751 5752 5754 5756 5759 5762 5763 5765 5767 5769 5771 5773 5776 5778 5779 5781 5782 5783 5784 5785 5786 5788 5789 5790 5792 5794 5795 5797 5798 5799 5801 5802 5804 5805 5806 5808 5809 5810 5811 5812 5813 5814 5815
5736 5735 5734 5733 5732 5731 5730 5730 5729 5728 5727 5726 5726 5725 5724 5724 5723 5723 5723 5723 5723 5723 5723 5723 5723 5724 5724 5724 5725 5725 5726 5726 5727 5728 5728 5729 5731 5732 5733 5734 5736 5738 5740 5740 5741 5743 5745 5748 5750 5752 5754 5755 5757 5760 5762 5764 5767 5769 5771 5773 5774 5775 5776 5777 5779 5780 5781 5783 5785 5786 5787 5788 5790 5791 5793 5794 5796 5797 5798 5800 5801 5801 5802 5803 5804 5805 5806
5730 5729 5728 5727 5726 5725 5725 5724 5723 5722 5721 5720 5719 5718 5718 5717 5716 5716 5715 5715 5715 5715 5715 5715 5716 5716 5716 5717 5717 5718 5718 5719 5719 5720 5720 5721 5723 5724 5725 5726 5728 5729 5730 5731 5733 5735 5737 5738 5741 5743 5745 5747 5748 5751 5753 5756 5758 5760 5762 5764 5765 5766 5767 5769 5770 5772 5773 5775 5777 5778 5779 5781 5782 5783 5785 5786 5788 5789 5790 5791 5792 5793 5794 5795 5796 5797 5798
5725 5724 5723 5722 5720 5719 5718 5717 5716 5715 5714 5713 5712 5711 5710 5710 5709 5708 5708 5707 5707 5707 5707 5707 5708 5708 5708 5709 5709 5710 5711 5711 5711 5712 5712 5713 5714 5716 5717 5718 5719 5720 5721 5723 5726 5727 5728 5729 5732 5735 5737 5738 5740 5742 5745 5747 5750 5752 5754 5755 5756 5757 5759 5760 5762 5764 5765 5767 5768 5770 5771 5772 5774 5776 5777 5778 5780 5781 5782 5783 5784 5784 5785 5787 5788 5789 5790
5719 5718 5717 5715 5714 5713 5712 5710 5709 5707 5706 5705 5704 5703 5702 5702 5701 5700 5700 5700 5699 5699 5699 5699 5699 5700 5700 5701 5701 5702 5703 5703 5704 5704 5704 5705 5705 5707 5708 5709 5710 5712 5714 5716 5719 5719 5719 5721 5724 5726 5728 5729 5732 5734 5736 5739 5742 5744 5745 5746 5747 5749 5750 5752 5753 5755 5757 5758 5760 5761 5763 5764 5766 5767 5769 5770 5771 5772 5773 5774 5775 5776 5777 5778 5779 5780 5781
5714 5712 5710 5709 5707 5706 5704 5703 5701 5700 5698 5697 5696 5695 5694 5693 5693 5692 5692 5691 5691 5691 5691 5691 5691 5691 5691 5692 5693 5693 5694 5695 5696 5696 5697 5697 5697 5698 5699 5700 5702 5703 5706 5708 5711 5711 5711 5713 5715 5718 5720 5721 5723 5725 5727 5731 5734 5735 5736 5737 5739 5740 5742 5743 5745 5747 5748 5750 5752 5753 5755 5756 5758 5759 5760 5761 5762 5763 5764 5765 5766 5768 5769 5770 5770 5771 5772
5707 5705 5703 5702 5700 5698 5696 5695 5693 5692 5690 5689 5688 5687 5686 5685 5684 5683 5683 5683 5682 5682 5682 5682 5682 5682 5683 5683 5683 5684 5685 5686 5687 5688 5688 5689 5689 5690 5691 5692 5693 5695 5697 5699 5701 5703 5704 5705 5707 5710 5712 5713 5714 5716 5719 5723 5725 5726 5727 5729 5730 5732 5733 5735 5737 5738 5740 5742 5744 5745 5746 5748 5749 5751 5751 5752 5753 5754 5756 5757 5758 5759 5760 5761 5762 5762 5763
5701 5698 5696 5694 5692 5690 5688 5687 5685 5684 5682 5681 5679 5678 5677 5676 5675 5674 5674 5673 5673 5673 5673 5673 5673 5673 5674 5674 5674 5675 5676 5677 5678 5678 5679 5680 5681 5682 5683 5684 5685 5687 5689 5691 5692 5694 5695 5697 5699 5701 5703 5705 5706 5708 5712 5715 5717 5717 5719 5720 5722 5723 5725 5727 5729 5731 5732 5734 5736 5737 5739 5740 5741 5742 5743 5744 5745 5747 5748 5748 5749 5750 5751 5752 5753 5753 5754
5693 5691 5689 5686 5684 5682 5680 5678 5677 5675 5674 5672 5671 5670 5668 5667 5666 5665 5665 5664 5664 5663 5663 5663 5663 5664 5664 5665 5665 5666 5667 5667 5668 5669 5670 5671 5672 5674 5675 5677 5678 5679 5681 5683 5684 5685 5688 5690 5692 5693 5694 5696 5698 5701 5704 5707 5708 5709 5711 5712 5714 5715 5717 5719 5721 5722 5724 5726 5728 5729 5731 5732 5732 5734 5735 5737 5738 5739 5739 5740 5741 5742 5742 5743 5744 5745 5745
5686 5684 5682 5679 5677 5675 5673 5671 5669 5667 5665 5664 5663 5661 5660 5658 5658 5657 5656 5655 5654 5654 5653 5654 5654 5654 5655 5655 5656 5657 5657 5658 5659 5660 5661 5662 5663 5665 5667 5669 5670 5672 5674 5675 5677 5679 5681 5683 5684 5685 5687 5689 5691 5693 5696 5698 5699 5700 5702 5704 5706 5708 5710 5711 5713 5714 5716 5718 5720 5721 5722 5723 5725 5726 5728 5729 5730 5731 5732 5732 5733 5734 5734 5735 5736 5736 5737
5680 5678 5675 5673 5670 5668 5666 5663 5661 5659 5657 5655 5654 5652 5651 5650 5649 5648 5647 5646 5645 5645 5644 5644 5645 5645 5646 5646 5646 5647 5647 5648 5650 5651 5652 5654 5655 5657 5659 5661 5662 5664 5666 5668 5669 5671 5673 5675 5676 5678 5680 5682 5684 5686 5688 5689 5691 5692 5694 5696 5698 5700 5702 5703 5705 5707 5708 5710 5712 5713 5714 5716 5717 5719 5720 5721 5722 5723 5723 5724 5725 5726 5726 5727 5728 5728 5728
5674 5671 5668 5666 5663 5660 5658 5656 5653 5651 5649 5647 5645 5644 5643 5642 5641 5640 5639 5638 5637 5636 5636 5635 5636 5636 5636 5637 5637 5638 5638 5639 5640 5642 5643 5645 5647 5648 5650 5652 5654 5656 5657 5659 5661 5663 5666 5668 5669 5671 5673 5675 5677 5678 5680 5682 5683 5684 5686 5688 5690 5692 5694 5696 5698 5699 5701 5703 5704 5705 5706 5708 5710 5711 5712 5713 5714 5714 5715 5716 5716 5717 5718 5718 5719 5719 5720
5667 5664 5661 5659 5656 5653 5651 5648 5646 5644 5641 5639 5638 5637 5635 5634 5633 5632 5631 5630 5629 5628 5628 5627 5627 5627 5628 5628 5628 5629 5630 5630 5631 5633 5634 5636 5638 5640 5641 5643 5645 5647 5649 5652 5654 5656 5658 5660 5662 5664 5666 5668 5669 5670 5672 5674 5676 5678 5679 5681 5683 5684 5686 5688 5690 5692 5694 5695 5696 5698 5699 5701 5702 5703 5704 5704 5705 5706 5707 5707 5708 5708 5709 5710 5710 5710 5711
5661 5658 5655 5653 5650 5647 5644 5642 5640 5638 5635 5633 5631 5630 5629 5627 5626 5625 5624 5623 5622 5621 5620 5619 5619 5619 5619 5619 5620 5620 5621 5622 5623 5624 5626 5628 5630 5632 5633 5635 5637 5639 5642 5644 5647 5649 5651 5653 5655 5657 5659 5661 5662 5663 5666 5668 5670 5672 5673 5674 5676 5677 5679 5681 5683 5684 5686 5687 5689 5690 5691 5693 5694 5695 5696 5696 5697 5698 5699 5699 5700 5700 5701 5701 5701 5702 5702
5656 5653 5650 5647 5644 5641 5639 5636 5634 5631 5629 5627 5625 5623 5622 5620 5619 5618 5617 5616 5615 5614 5613 5612 5611 5611 5610 5610 5611 5611 5612 5613 5614 5615 5617 5619 5621 5623 5625 5627 5630 5632 5634 5637 5639 5641 5643 5646 5648 5650 5652 5654 5655 5657 5659 5661 5663 5665 5667 5668 5669 5671 5672 5674 5675 5677 5678 5679 5681 5682 5683 5685 5686 5687 5688 5688 5689 5690 5690 5691 5692 5692 5692 5693 5693 5694 5694
5651 5648 5645 5642 5639 5636 5633 5630 5627 5625 5622 5620 5619 5617 5615 5614 5613 5611 5611 5610 5609 5608 5607 5606 5605 5604 5603 5602 5602 5603 5603 5604 5606 5607 5609 5611 5614 5615 5617 5620 5623 5625 5627 5629 5631 5634 5636 5639 5641 5643 5645 5647 5649 5651 5653 5655 5657 5658 5660 5661 5662 5664 5665 5667 5668 5669 5671 5672 5673 5675 5676 5677 5678 5679 5680 5681 5681 5682 5683 5683 5684 5684 5685 5685 5686 5686 5686
5647 5643 5640 5636 5633 5630 5627 5624 5621 5619 5617 5615 5613 5611 5610 5609 5608 5607 5606 5605 5604 5603 5602 5601 5600 5598 5596 5595 5594 5594 5595 5596 5598 5600 5602 5604 5606 5608 5610 5613 5615 5618 5619 5622 5625 5627 5629 5631 5634 5636 5638 5640 5642 5644 5646 5648 5650 5652 5653 5655 5656 5657 5658 5660 5661 5662 5663 5665 5666 5667 5668 5669 5670 5671 5672 5673 5674 5674 5675 5676 5677 5677 5678 5678 5678 5679 5679
5642 5639 5635 5632 5629 5625 5622 5619 5617 5614 5612 5610 5609 5608 5606 5605 5604 5603 5602 5601 5600 5599 5598 5597 5596 5594 5591 5589 5587 5587 5588 5590 5592 5593 5595 5597 5600 5602 5604 5607 5609 5611 5613 5615 5618 5620 5622 5625 5627 5629 5632 5634 5636 5638 5640 5642 5644 5645 5647 5648 5649 5651 5652 5653 5654 5655 5656 5657 5658 5659 5660 5662 5663 5664 5665 5665 5666 5667 5668 5669 5669 5670 5670 5671 5671 5671 5671
5638 5635 5632 5628 5625 5621 5618 5615 5613 5610 5608 5607 5605 5604 5603 5602 5601 5600 5599 5598 5597 5596 5594 5593 5592 5590 5588 5586 5584 5583 5583 5584 5586 5588 5590 5592 5594 5596 5598 5601 5604 5606 5608 5610 5612 5614 5616 5618 5621 5623 5625 5628 5630 5632 5634 5636 5638 5639 5641 5642 5643 5644 5645 5646 5647 5648 5649 5650 5651 5652 5653 5654 5655 5657 5658 5659 5660 5661 5661 5662 5662 5663 5663 5663 5663 5663 5663
5635 5632 5628 5625 5621 5618 5615 5612 5609 5607 5605 5604 5603 5602 5600 5599 5598 5597 5596 5595 5594 5592 5591 5590 5588 5586 5585 5583 5582 5580 5580 5580 5582 5584 5586 5587 5589 5591 5594 5597 5599 5601 5603 5605 5607 5608 5610 5613 5615 5617 5620 5622 5624 5626 5628 5630 5632 5634 5635 5636 5637 5638 5639 5640 5641 5642 5644 5645 5646 5647 5647 5648 5649 5650 5651 5652 5653 5654 5654 5655 5655 5655 5655 5655 5655 5655 5655
5632 5628 5625 5622 5618 5615 5612 5609 5606 5604 5603 5601 5600 5599 5598 5597 5595 5594 5594 5593 5591 5590 5589 5587 5585 5584 5583 5582 5580 5579 5578 5579 5580 5582 5584 5585 5586 5588 5590 5593 5595 5598 5600 5601 5603 5604 5606 5608 5610 5612 5614 5617 5619 5621 5623 5625 5627 5628 5629 5631 5632 5633 5634 5635 5636 5637 5638 5639 5640 5641 5642 5643 5643 5644 5645 5646 5646 5647 5647 5647 5648 5648 5648 5648 5648 5647 5647
5629 5625 5622 5619 5615 5612 5609 5606 5604 5602 5600 5599 5598 5597 5595 5594 5593 5592 5591 5590 5589 5588 5587 5585 5584 5582 5581 5581 5580 5579 5578 5579 5580 5581 5583 5584 5585 5586 5588 5590 5593 5594 5596 5598 5599 5601 5602 5603 5605 5607 5609 5612 5614 5616 5618 5620 5621 5623 5624 5625 5626 5627 5629 5630 5631 5632 5633 5634 5635 5635 5636 5637 5637 5638 5639 5639 5639 5640 5640 5640 5640 5640 5640 5640 5640 5640 5639
5626 5623 5620 5616 5613 5609 5607 5604 5602 5600 5598 5597 5595 5594 5593 5592 5591 5590 5589 5588 5587 5586 5585 5584 5583 5582 5581 5580 5579 5579 5578 5579 5580 5580 5581 5583 5584 5585 5586 5588 5590 5592 5593 5595 5596 5598 5599 5600 5601 5603 5605 5608 5610 5612 5613 5614 5616 5617 5619 5620 5621 5622 5623 5624 5625 5626 5627 5628 5629 5630 5630 5631 5631 5632 5632 5632 5632 5633 5633 5633 5633 5633 5633 5633 5632 5632 5632